Theta_e
322 324 325 322 322 322 323 326 328 329 327 324 323 322 326 333 333 333 336 336 337 336 331 329 328 330 331 325 320 318 317 319 321 331 331 316 313 314 309 310 313 318 325 327 330 334 335 336 336 336 336 336 337 336 336 336 336 336 335 335 334 333 333 332 332 332 332 331 330 331 330 329 328 328 327 327 328 328 328 326 327 327 328 327 326 324 324 324 325 326 325 325 325 324 324 322 321
321 325 326 322 321 322 324 326 325 325 325 322 321 324 330 335 334 336 338 337 338 334 330 327 324 323 323 321 320 321 316 311 311 317 315 308 313 312 307 309 311 315 321 323 327 331 332 334 335 335 335 335 335 335 335 334 334 334 333 332 331 330 330 330 330 329 329 329 329 329 328 328 327 327 325 325 325 326 326 324 324 325 325 323 324 323 322 321 321 321 321 321 321 321 321 320 320
321 325 327 323 321 322 325 326 323 320 322 322 320 327 334 337 338 338 335 334 334 333 331 325 321 319 322 323 320 322 316 309 307 310 310 307 309 307 306 309 309 312 317 319 323 327 329 331 332 332 332 332 332 332 332 332 332 332 331 329 329 329 328 328 328 327 327 326 326 326 326 326 325 325 324 325 324 324 323 322 322 322 321 319 320 321 320 319 319 319 318 318 318 318 318 318 318
322 326 326 324 322 320 324 325 323 319 318 318 320 332 336 337 338 336 334 333 331 331 330 325 320 313 316 317 313 317 313 308 306 306 308 305 303 303 304 307 308 310 314 316 318 323 325 327 329 329 330 329 330 330 329 330 329 329 328 327 327 327 326 326 325 325 324 323 323 322 322 322 322 322 322 322 321 321 320 320 319 319 318 317 316 316 314 313 313 312 312 312 313 313 312 312 312
324 326 324 324 325 320 323 324 322 317 316 318 323 333 334 335 335 334 333 331 328 328 327 324 322 313 310 308 308 312 308 308 307 304 305 303 302 302 303 305 306 308 311 313 314 318 322 324 325 326 327 327 327 327 327 326 326 326 326 325 325 324 324 324 323 323 322 321 321 319 319 320 320 320 319 319 318 318 317 316 315 312 311 309 307 306 304 303 303 303 303 303 304 304 305 305 304
327 326 321 322 326 323 323 323 321 317 319 323 327 333 333 333 333 332 333 330 326 324 323 321 320 314 309 306 305 306 304 306 305 302 302 301 301 301 302 303 304 306 307 309 311 314 317 320 322 323 324 324 325 324 325 324 324 323 323 323 322 322 321 321 321 321 320 319 319 318 318 318 318 318 318 318 316 314 311 308 305 302 301 300 299 298 298 297 297 297 298 298 298 299 299 300 300
326 325 321 321 323 323 324 322 320 319 323 327 327 331 332 333 334 333 333 331 326 323 322 319 315 314 312 308 306 304 303 303 302 301 300 300 300 300 301 302 302 304 306 306 308 310 312 315 318 320 320 321 321 321 322 322 321 321 321 321 320 319 319 319 319 318 318 317 317 316 315 314 314 313 313 313 310 307 303 300 297 296 295 296 295 295 295 295 295 295 295 295 295 296 295 296 296
324 325 322 323 321 320 324 321 321 322 325 329 329 331 332 333 333 331 330 329 325 322 321 319 316 317 312 309 308 304 302 302 301 300 299 299 299 299 300 300 300 302 305 305 306 307 308 311 314 316 317 317 318 318 319 319 319 318 318 318 317 317 316 316 317 317 316 315 314 312 311 309 307 307 306 305 302 299 297 295 294 294 294 294 294 294 294 294 294 294 294 294 294 295 294 295 295
322 323 324 326 322 318 322 321 321 324 327 329 329 330 330 331 332 330 328 327 324 320 318 317 318 319 311 308 307 304 302 301 300 299 298 298 298 297 298 298 298 300 302 303 305 307 308 309 311 313 313 314 314 314 315 316 316 316 315 315 315 315 314 314 313 311 309 307 305 304 303 301 300 300 299 298 296 294 294 294 294 294 294 294 294 294 294 294 294 294 294 294 294 294 294 294 294
322 322 325 327 323 319 320 320 321 323 327 328 328 328 328 329 329 329 328 326 324 321 318 315 315 315 310 308 306 303 302 300 299 298 297 296 296 295 296 296 296 298 300 301 302 305 308 309 311 313 313 313 312 311 312 312 313 313 313 313 312 312 310 308 305 301 299 298 297 296 295 295 295 295 294 294 293 293 293 293 293 293 294 293 293 294 293 294 293 294 294 294 294 293 294 294 294
324 322 325 327 323 319 319 320 321 324 327 328 328 327 326 326 328 329 327 324 321 320 318 316 315 312 309 307 305 303 301 300 299 297 296 295 294 293 294 294 295 296 299 301 300 301 305 308 311 313 314 315 313 311 310 310 309 309 309 309 308 305 302 299 297 295 294 293 293 293 293 293 293 293 293 293 293 293 293 293 293 293 293 293 293 293 293 293 293 293 294 294 294 293 294 293 293
325 324 325 325 324 323 322 322 323 326 326 327 328 327 326 326 328 327 325 323 319 317 315 314 316 313 311 309 305 303 301 300 299 296 295 294 293 292 292 293 294 294 296 300 300 301 303 305 309 309 311 314 314 312 309 308 307 306 305 303 300 298 296 294 293 293 293 292 292 292 292 292 293 293 293 293 293 293 293 292 293 293 293 293 292 292 292 292 292 293 293 294 294 293 293 293 293
326 326 325 325 326 325 323 322 325 326 326 327 328 325 325 326 326 323 322 319 318 318 312 310 315 316 312 308 306 302 300 299 299 297 295 294 293 292 292 292 293 292 293 297 298 301 303 302 305 305 307 310 312 313 310 307 305 302 300 297 295 293 292 292 292 292 292 292 292 292 292 292 292 292 292 292 292 292 292 292 292 292 292 292 292 292 292 292 292 292 292 293 293 293 292 292 292
326 325 325 326 325 324 322 323 325 325 326 328 326 322 322 322 322 320 318 315 314 313 309 305 309 315 311 309 308 302 299 298 298 297 296 295 293 292 292 291 291 291 292 294 294 297 298 298 301 302 302 304 306 307 305 303 300 297 294 293 292 292 292 291 291 291 292 291 292 292 292 291 291 291 292 291 291 292 291 291 291 291 291 291 291 291 291 292 292 292 292 292 292 292 291 291 291
324 323 325 326 324 323 323 323 324 324 327 329 324 319 317 316 316 316 315 313 309 306 307 304 302 311 312 310 307 300 297 297 297 297 296 295 294 292 291 291 291 291 291 291 291 292 292 293 295 296 296 297 297 296 296 296 295 293 292 291 291 291 291 291 291 291 291 291 291 291 291 291 291 291 291 291 291 291 291 291 291 291 291 291 291 290 291 291 291 291 291 291 291 291 291 290 290
324 324 326 326 324 325 325 325 324 324 326 327 322 318 316 313 312 312 311 310 306 301 303 301 299 303 304 302 300 296 295 296 296 296 295 295 294 292 291 291 290 290 291 290 289 289 289 290 290 291 292 292 291 291 291 291 292 291 291 291 291 291 291 291 291 291 291 291 291 290 291 291 291 291 290 290 291 291 291 290 290 290 290 290 290 290 290 290 291 291 291 291 291 291 290 290 290
324 327 328 326 325 326 326 327 327 325 326 325 322 319 317 313 310 309 307 305 303 300 297 296 296 297 296 296 295 294 294 294 295 295 294 293 293 292 291 291 290 290 290 289 289 288 288 289 289 289 289 289 289 289 290 289 290 290 290 290 291 291 291 292 292 291 291 291 291 290 290 290 291 291 290 290 290 290 290 290 290 290 290 290 290 290 290 290 290 291 290 291 290 290 290 290 290
325 328 327 326 326 326 326 328 327 326 326 326 324 321 317 315 312 309 307 304 302 300 298 296 295 294 294 294 293 294 294 295 294 293 292 292 291 292 291 290 290 289 289 289 288 288 288 289 288 288 288 289 289 289 289 289 289 289 290 290 291 291 291 291 292 291 290 290 290 289 289 289 289 289 289 289 288 289 289 289 289 289 289 289 290 290 289 289 289 290 289 289 289 289 289 289 289
324 326 326 326 326 325 325 326 325 324 324 323 321 320 318 317 314 312 311 308 305 304 300 298 296 295 294 293 293 293 294 295 294 292 291 291 291 291 290 289 288 288 288 287 287 288 288 289 289 289 289 289 289 289 289 289 289 289 289 290 290 291 291 291 291 291 290 289 288 289 288 288 288 288 288 288 287 287 287 288 288 288 288 289 289 289 289 289 289 289 288 288 288 287 287 288 288
323 325 327 326 325 324 323 325 325 323 322 319 316 316 316 316 315 313 311 309 306 304 303 301 298 296 294 293 292 291 291 292 292 292 291 290 290 290 289 289 287 287 286 286 286 286 288 289 289 289 289 289 290 290 290 290 290 289 289 289 290 290 290 290 290 290 290 288 288 287 287 287 287 287 287 287 287 286 286 287 287 287 288 288 288 288 288 288 288 288 287 287 287 286 286 286 287
323 324 325 324 323 324 324 324 324 323 321 318 316 314 312 311 312 311 311 311 305 300 300 301 299 295 293 292 292 291 290 290 290 290 290 289 289 289 288 288 287 286 286 285 285 285 286 287 288 288 288 289 289 289 289 289 290 289 288 288 289 289 289 289 289 289 289 288 287 286 286 286 286 286 286 286 286 285 286 286 286 286 287 287 287 287 287 286 286 286 286 286 286 286 285 285 285
323 323 323 323 323 324 324 323 322 322 321 319 316 314 311 308 307 306 309 311 304 298 297 297 297 295 293 292 291 290 290 289 289 289 289 289 288 287 287 287 287 286 285 285 285 285 285 285 286 286 286 286 287 286 287 287 288 289 287 287 288 287 288 288 287 288 287 287 287 286 286 285 285 285 285 285 285 285 285 285 285 285 286 286 285 285 285 284 285 285 285 285 285 285 284 284 285
323 323 322 322 323 324 323 321 320 319 319 317 314 312 310 308 305 301 301 301 297 295 294 294 294 293 293 292 291 290 289 289 288 288 288 288 287 286 286 286 285 285 284 284 284 284 284 284 285 285 284 284 285 285 285 285 286 286 285 285 285 286 286 286 286 286 286 286 285 285 285 285 284 284 284 284 284 284 284 284 284 284 284 284 283 283 283 283 283 284 284 284 284 284 284 283 283
324 323 322 322 322 323 321 317 316 315 316 314 312 311 310 311 307 300 297 295 293 293 293 292 292 292 292 291 290 289 288 288 287 287 287 286 286 285 285 284 284 284 284 284 284 284 284 284 284 284 284 284 284 284 284 284 284 284 283 284 284 283 284 284 284 284 285 285 285 284 284 284 284 283 283 283 283 283 283 283 283 283 283 282 282 282 282 282 282 282 282 282 283 283 283 282 282
323 323 323 322 322 321 318 315 313 313 313 312 311 309 307 308 304 299 296 295 293 292 291 291 290 290 290 289 289 289 288 288 287 286 286 285 285 285 284 283 284 284 283 283 283 283 283 283 283 283 283 283 283 283 283 283 283 283 283 283 282 282 282 283 283 284 284 284 284 284 283 283 283 283 282 282 282 282 282 282 282 282 281 281 281 281 281 281 281 281 281 281 282 283 283 282 281
323 323 323 322 321 319 316 315 313 312 311 311 309 306 304 303 302 299 295 294 293 292 291 291 290 289 288 288 288 288 287 287 287 286 286 285 284 284 284 283 283 283 283 283 283 283 283 283 283 283 283 283 283 283 282 282 282 282 282 282 281 281 281 281 282 282 283 283 283 283 283 282 282 282 281 281 281 281 281 281 281 281 280 280 280 280 280 280 280 280 280 280 281 282 282 281 280
321 322 323 322 320 318 317 316 314 312 311 310 308 306 305 302 304 303 295 293 293 292 291 291 290 289 288 287 287 286 286 286 285 285 285 285 284 284 283 283 283 282 283 282 282 282 282 282 282 282 282 282 282 282 282 281 281 281 281 280 280 280 280 280 280 281 281 281 282 282 282 281 280 280 280 280 280 280 280 280 280 280 280 279 279 279 279 279 279 280 279 280 280 281 282 281 280
319 321 322 322 320 318 318 316 314 313 312 312 308 306 305 303 307 304 295 292 292 292 292 291 290 288 287 287 286 286 285 285 284 284 284 284 283 283 283 283 282 282 282 282 282 282 282 282 282 282 282 281 281 281 281 281 280 280 280 280 280 279 279 279 279 279 279 280 280 281 281 280 280 279 279 279 279 279 279 279 279 279 279 279 278 278 278 278 278 279 279 279 279 280 281 281 279
319 320 322 323 322 321 320 318 316 315 315 312 309 311 311 308 307 300 293 292 292 292 291 290 289 288 287 286 286 285 285 284 284 283 283 283 283 283 282 282 282 282 281 281 281 282 282 282 282 282 281 281 281 281 280 280 280 280 279 279 279 279 278 278 278 278 278 278 279 279 279 279 279 278 278 278 278 278 278 278 278 278 278 278 278 277 277 277 277 278 278 278 278 279 280 280 279
319 320 321 322 323 323 321 319 317 317 315 310 312 320 319 308 301 296 293 293 293 293 292 290 289 288 287 286 285 285 284 284 284 283 282 282 282 282 281 281 282 282 281 281 281 281 281 281 281 281 281 281 280 280 280 280 279 279 279 279 278 278 278 277 277 277 277 277 278 278 278 278 278 278 277 277 277 277 277 277 277 277 278 277 277 277 276 276 276 277 277 277 277 278 279 279 278
319 320 321 322 323 323 321 320 319 317 314 311 314 324 320 304 298 295 294 294 294 294 292 290 289 288 287 286 285 285 284 284 283 282 282 282 281 281 281 281 281 281 281 281 281 281 281 281 281 281 281 280 280 280 279 279 279 278 278 278 278 277 277 277 277 276 276 277 277 277 277 277 277 277 276 276 276 276 276 276 276 277 277 277 276 276 276 275 275 276 276 277 277 277 278 278 277
318 322 322 322 322 322 322 320 320 318 313 312 317 323 320 305 298 296 294 294 295 295 293 292 290 289 288 287 286 285 283 283 282 281 281 281 281 281 280 280 281 281 281 281 281 281 281 281 281 280 280 280 280 279 279 279 278 278 278 278 277 277 276 276 276 276 276 276 276 276 276 276 276 276 276 276 275 275 275 275 276 276 276 276 275 275 275 274 274 275 275 276 276 276 277 277 276
318 320 321 321 320 322 325 322 321 319 314 314 317 321 319 306 298 296 296 295 296 297 296 293 291 290 288 287 286 285 283 283 282 282 281 281 281 281 280 280 280 280 280 281 281 281 280 280 280 280 280 280 279 279 279 278 278 278 277 277 277 276 276 276 275 275 275 275 275 275 275 275 275 275 275 275 275 275 274 274 275 275 275 275 275 274 274 274 273 274 274 275 275 276 276 277 276
319 319 320 320 318 320 323 322 321 320 316 316 316 319 318 305 298 297 296 296 297 298 297 294 293 291 289 288 286 285 284 283 283 282 282 281 281 280 280 280 280 280 280 280 280 280 280 280 280 280 280 280 280 279 279 279 278 278 277 277 276 276 276 275 275 275 275 274 274 274 274 274 274 274 274 274 274 274 274 273 274 274 274 275 274 273 273 273 272 273 273 274 275 275 276 276 275
319 319 320 320 319 318 318 319 320 320 319 318 316 317 317 305 298 298 297 297 298 298 297 295 294 292 290 289 287 286 285 284 283 282 281 281 280 280 279 279 279 279 279 279 279 280 280 279 279 279 280 280 280 280 280 279 279 278 278 277 276 276 275 275 274 274 274 273 273 273 273 273 273 273 273 273 273 273 273 273 273 273 273 273 273 272 272 272 272 272 272 273 274 274 275 275 274
317 318 320 320 320 317 315 316 318 318 320 320 317 318 318 308 300 298 298 297 298 299 298 296 294 293 292 290 289 287 286 285 283 282 281 281 280 280 279 279 279 279 279 279 279 279 279 279 279 279 279 279 280 280 280 280 279 279 278 277 277 276 275 274 274 273 273 273 272 272 272 272 272 272 272 272 272 272 272 272 272 272 272 272 273 272 271 271 271 271 271 272 273 273 274 274 274
316 318 319 319 318 316 314 315 316 316 318 318 317 317 317 312 304 299 299 298 298 299 299 297 295 294 293 291 290 289 287 285 283 282 281 281 280 280 279 279 279 279 278 278 279 279 279 279 278 278 278 279 279 279 280 279 279 278 278 277 277 276 275 274 273 273 272 272 272 272 271 271 271 271 271 271 271 271 271 271 271 271 271 271 272 271 270 270 270 270 270 271 272 272 273 273 274
316 317 317 317 317 315 313 314 314 314 317 317 316 315 314 313 308 301 299 299 299 299 300 298 296 295 293 291 290 289 286 283 282 282 281 281 280 279 279 279 279 279 278 278 278 278 278 278 278 278 278 278 278 278 278 278 278 278 277 276 276 275 275 274 273 273 272 272 271 271 271 271 271 271 271 270 270 271 271 271 271 270 270 270 271 271 270 270 269 269 270 270 270 271 272 272 273
314 315 317 317 316 315 314 314 313 312 314 315 314 313 312 312 311 304 299 299 300 299 300 299 297 295 294 292 290 288 285 282 282 282 281 280 280 280 279 279 279 278 278 278 278 278 277 277 277 277 277 277 277 277 277 277 277 277 277 276 275 275 274 274 273 273 272 272 271 271 271 270 270 270 270 270 269 270 270 270 270 270 270 270 270 270 269 269 269 269 269 269 270 270 271 271 272
314 315 316 318 317 317 317 315 313 312 313 313 313 313 312 311 312 307 301 300 301 300 300 300 299 296 294 292 290 287 284 283 282 282 281 281 280 280 279 279 278 278 278 278 277 277 277 277 277 276 276 276 276 276 276 276 276 277 276 276 275 275 274 274 274 273 272 272 271 271 270 270 269 269 269 269 269 269 269 269 269 269 269 269 269 269 268 268 268 268 268 268 269 269 269 270 271
314 315 316 317 316 316 317 314 312 312 313 313 313 313 313 311 312 310 304 301 302 301 300 301 300 297 295 293 290 287 284 283 283 282 281 281 280 280 279 279 278 278 278 277 277 277 276 276 276 276 276 276 276 276 276 276 277 277 277 276 276 275 275 274 274 273 273 272 271 271 270 269 269 269 269 269 269 269 269 269 269 268 268 268 268 268 268 267 267 267 268 268 268 268 269 269 270
314 315 316 315 314 315 315 314 314 315 315 315 313 314 316 313 313 312 305 301 302 301 301 301 300 298 295 293 290 287 285 284 283 282 281 281 280 280 279 278 278 278 277 277 276 276 276 276 276 275 275 275 275 275 275 276 276 277 277 277 276 276 274 273 273 273 272 272 271 270 270 269 268 268 268 269 269 268 268 268 268 268 268 267 267 267 267 267 267 267 267 267 267 268 268 268 269
315 316 316 315 315 316 315 315 316 317 317 315 313 315 317 314 314 313 305 302 302 301 300 300 299 298 296 293 290 287 286 285 283 282 281 281 280 280 279 278 278 277 276 276 276 276 276 275 275 275 275 274 275 275 275 275 275 276 276 276 276 275 274 273 272 272 271 271 271 270 270 269 268 268 268 268 268 268 268 268 268 267 267 267 267 266 266 266 266 266 266 266 267 267 267 268 267
316 315 315 314 315 315 315 316 317 316 316 316 314 315 316 315 315 312 306 303 303 301 300 299 298 297 296 293 290 288 286 285 283 282 281 281 280 279 279 278 278 277 276 276 276 276 275 275 275 274 274 274 274 274 274 274 274 274 274 274 274 274 273 273 272 272 271 271 270 270 269 269 268 268 268 268 268 268 268 267 267 267 266 266 266 266 265 266 265 265 266 266 266 266 266 267 266
315 314 313 313 314 314 314 315 316 316 316 317 315 315 316 316 313 309 305 306 305 303 301 299 298 297 295 293 290 288 287 285 283 282 281 281 280 279 279 278 277 276 276 275 275 275 275 275 274 274 273 273 273 273 273 273 273 274 273 273 273 273 273 272 272 271 271 270 270 270 269 269 268 267 267 267 267 268 267 267 267 267 266 266 266 265 265 265 265 265 265 265 265 265 266 266 265
313 312 312 313 314 314 314 315 314 315 316 316 315 315 316 316 313 307 305 307 308 306 303 300 298 296 295 292 290 288 286 285 283 282 281 281 280 279 279 278 277 276 276 275 275 275 274 274 274 273 273 273 273 273 273 272 272 272 272 272 272 272 272 272 271 271 270 270 270 269 269 269 268 267 267 267 267 267 266 266 266 266 266 265 266 265 265 266 265 265 265 264 264 264 265 265 265
311 312 313 314 314 314 314 314 314 315 315 315 314 314 315 316 314 308 307 309 309 308 306 302 298 296 295 292 289 287 286 284 283 282 281 281 280 279 278 277 276 276 275 275 275 274 274 274 273 273 273 272 272 272 272 272 271 271 271 271 271 271 271 271 271 270 270 269 269 269 269 268 268 267 267 267 266 266 266 265 266 266 266 266 266 266 265 265 265 265 264 264 264 264 264 264 264
311 312 313 314 314 314 314 314 314 315 316 315 314 314 314 316 315 310 309 310 309 310 308 303 298 296 294 292 289 287 286 284 283 282 281 280 280 279 278 277 276 276 275 275 274 274 274 274 273 273 272 272 271 271 271 271 271 271 270 270 270 270 270 270 270 270 269 269 269 268 268 268 268 267 267 266 266 266 266 265 266 266 266 266 265 265 265 265 265 265 264 264 264 263 263 264 263
311 312 312 314 315 316 316 316 316 316 316 313 312 313 314 314 314 312 311 308 306 306 305 302 298 296 294 291 289 287 285 284 283 282 281 280 280 278 277 277 276 275 275 275 274 274 274 273 273 272 272 271 271 271 271 270 270 270 270 270 270 269 269 269 269 269 269 268 268 268 267 267 267 267 266 266 265 266 266 265 265 265 265 265 265 265 265 264 264 264 264 264 263 263 263 263 263
311 312 313 315 316 317 318 318 317 318 316 311 309 312 313 313 311 309 305 302 300 300 301 300 298 295 293 291 289 287 285 284 283 282 281 280 279 278 277 277 276 275 275 275 274 274 274 273 273 272 272 271 271 270 270 270 270 269 269 269 269 269 269 269 269 268 268 268 267 267 267 266 266 266 266 265 265 266 265 265 265 265 265 265 265 265 265 264 264 264 263 263 263 263 263 263 262
312 312 313 315 316 317 318 318 318 319 317 312 310 312 314 313 308 301 297 296 296 297 298 298 296 294 292 290 288 286 285 284 283 282 281 280 279 278 277 277 276 276 275 275 274 274 274 273 273 272 271 271 271 270 270 270 269 269 269 269 269 269 268 269 268 268 267 267 267 266 266 266 266 265 265 265 265 265 265 265 265 265 265 265 264 264 264 264 264 263 263 263 263 262 262 262 262
314 312 313 314 314 314 316 316 316 316 316 314 312 312 312 309 301 295 295 295 294 296 297 295 294 292 290 289 287 286 285 284 283 282 281 280 279 278 278 277 276 276 275 275 274 274 273 273 273 272 271 271 271 270 270 270 269 269 268 268 268 268 268 268 268 267 267 267 266 266 266 265 265 265 265 265 265 265 265 265 265 265 264 264 264 263 264 264 263 263 263 263 262 262 262 262 262
312 312 314 312 311 311 314 314 313 313 315 314 312 312 312 309 302 295 294 295 294 294 295 294 292 291 289 288 286 285 284 284 283 282 281 280 279 278 278 277 276 276 275 275 274 274 273 273 272 272 271 271 270 270 269 269 269 268 268 268 267 267 267 267 267 267 266 266 266 265 265 265 265 265 265 265 265 265 265 265 264 264 264 263 263 263 263 263 263 263 263 262 262 262 262 262 262
311 312 312 310 311 312 312 313 313 314 314 314 312 312 312 313 309 299 295 296 295 294 294 294 292 290 289 287 286 285 285 284 283 282 281 280 279 278 278 277 277 276 275 275 274 274 274 273 272 272 271 271 270 270 269 269 268 268 268 267 267 267 267 267 266 266 266 265 265 265 265 265 264 265 265 265 265 265 265 264 264 264 264 264 263 263 263 263 263 263 263 262 262 262 261 262 261
309 309 308 309 312 313 312 313 313 314 314 314 313 313 312 313 312 306 302 301 297 294 294 294 291 289 289 288 286 285 284 283 283 282 281 280 279 278 278 277 277 276 275 275 274 274 273 273 272 272 271 271 270 270 269 268 268 268 267 267 267 266 266 266 266 266 265 265 265 264 264 264 264 265 265 265 265 265 265 265 265 265 265 264 264 263 263 263 263 263 263 263 262 261 261 262 262
308 307 308 308 310 311 312 312 312 313 314 314 314 313 312 311 309 307 307 303 298 296 294 293 292 290 289 288 286 285 284 283 282 282 281 280 279 279 278 277 276 276 275 275 274 274 273 273 272 272 271 271 270 269 269 268 268 268 267 267 266 266 266 266 266 265 265 265 264 264 264 264 264 264 264 264 265 265 265 265 265 265 264 264 264 263 263 263 263 263 263 262 262 262 262 262 262
310 309 309 309 309 309 310 310 310 312 312 313 314 313 312 308 304 304 306 303 300 298 296 294 292 291 289 288 286 285 284 283 282 282 281 280 279 279 278 277 276 276 275 275 274 274 273 273 272 271 271 270 270 269 268 268 267 267 267 267 266 266 266 266 265 265 264 264 264 264 265 265 265 264 264 265 265 265 265 265 265 265 264 263 263 263 263 262 262 263 263 262 262 262 262 262 262
311 311 311 311 310 310 310 310 311 311 311 312 312 313 312 306 301 301 303 303 300 299 297 295 293 291 290 288 287 285 284 283 282 281 281 280 279 278 278 277 276 275 275 274 274 273 273 272 272 271 270 270 269 268 268 268 267 267 267 266 266 266 266 266 265 265 264 264 264 265 265 265 265 264 264 265 265 265 265 264 264 264 263 263 262 262 262 262 262 263 263 263 262 262 262 262 261
Wind_Speed
6 10 12 9 8 8 6 3 2 2 2 3 4 3 2 3 3 2 6 7 5 9 12 12 13 11 8 11 14 14 14 10 5 1 4 6 5 12 25 27 28 31 30 27 32 29 24 18 17 20 19 27 33 33 36 34 33 32 31 31 30 31 32 32 31 30 30 29 29 27 26 26 25 24 25 27 26 26 25 24 25 25 23 22 22 25 26 25 24 23 22 22 23 24 24 25 25
6 11 12 7 6 6 2 1 2 2 3 3 3 3 0 5 6 7 11 10 7 8 10 12 14 15 17 17 12 11 14 12 9 4 5 13 4 12 29 24 27 30 30 32 36 34 32 31 31 32 31 33 35 35 36 34 33 32 32 32 32 33 33 33 33 32 31 31 32 29 27 27 25 23 24 26 25 25 25 24 25 25 24 23 22 23 24 24 24 23 23 23 23 24 24 25 25
6 9 12 6 4 3 0 1 3 3 3 3 3 1 2 5 9 11 11 11 10 9 9 11 13 10 9 12 12 8 9 9 13 8 5 19 11 18 29 21 24 27 30 35 38 36 33 35 35 35 36 36 37 37 36 34 33 32 31 32 32 31 32 32 31 31 29 30 31 29 27 26 24 24 24 25 25 24 25 25 24 24 24 24 23 23 23 23 23 23 23 23 24 24 23 24 24
6 10 11 6 2 2 1 2 2 3 3 2 1 5 7 7 10 9 9 11 12 9 7 8 9 10 11 13 10 6 7 6 14 12 5 17 17 21 23 19 21 25 30 36 39 36 34 36 36 36 38 38 37 35 35 34 33 33 32 32 31 31 30 30 29 28 28 28 28 28 27 25 24 24 24 24 24 24 24 24 24 24 25 24 24 23 23 24 23 23 23 23 23 23 23 24 24
8 11 7 7 2 1 1 2 1 4 3 1 1 6 8 8 9 9 10 14 15 14 10 6 6 7 12 11 6 3 6 5 11 16 9 14 18 18 18 18 20 23 29 34 38 37 34 36 37 36 37 38 36 34 33 32 31 32 32 32 31 30 29 29 28 28 27 28 27 27 28 26 26 25 25 25 25 25 25 25 26 26 26 26 26 26 26 27 26 26 26 25 25 25 25 24 24
11 9 5 5 2 0 2 2 2 3 2 5 2 6 8 8 8 9 12 15 17 16 14 10 7 9 8 7 7 8 8 6 8 14 13 14 16 16 16 19 21 22 26 31 35 36 34 34 35 35 36 36 35 34 33 32 31 31 31 31 30 29 29 28 28 27 27 28 28 28 28 28 28 28 28 27 27 28 28 29 29 29 29 29 29 29 29 28 28 28 27 27 27 26 26 25 25
9 4 2 3 1 1 3 2 2 2 4 8 4 6 8 8 8 10 9 9 13 14 13 9 8 10 6 4 7 11 15 12 9 12 14 12 12 14 16 20 24 24 24 28 32 34 32 32 33 33 34 35 35 34 34 34 33 32 31 30 30 29 28 27 27 27 27 27 27 27 27 28 28 29 29 29 30 30 30 31 31 30 30 30 29 29 29 28 28 28 28 28 27 27 26 26 25
5 2 1 1 1 1 3 2 0 1 5 8 8 7 8 8 8 10 10 7 7 11 12 7 7 8 7 5 5 9 17 16 12 13 14 11 12 16 17 20 25 25 25 26 29 32 32 31 32 33 34 34 33 34 33 33 32 32 31 30 30 29 28 27 26 26 26 25 26 26 27 28 28 29 30 30 31 31 31 31 31 31 30 30 29 29 28 28 28 27 27 27 27 27 26 26 26
4 1 0 0 1 2 2 1 1 3 7 9 9 7 8 8 8 10 10 9 7 10 14 11 7 6 6 9 6 6 14 16 14 14 16 14 15 17 18 21 24 25 26 27 28 31 32 31 31 33 33 32 32 33 32 31 30 30 30 30 29 29 28 28 28 28 28 28 28 28 28 29 30 31 32 32 32 32 32 32 32 32 31 31 30 30 29 28 28 28 27 27 27 27 26 26 26
2 0 1 2 2 2 1 1 1 4 9 8 7 6 4 4 6 9 10 10 8 8 10 11 12 10 7 7 4 5 11 16 17 17 17 16 17 18 19 21 23 25 26 27 29 30 32 32 32 32 32 32 33 33 32 30 29 29 29 29 29 29 29 30 31 32 32 33 33 33 32 33 33 33 34 34 34 34 33 33 32 32 32 32 31 30 30 29 29 28 28 28 28 28 27 27 27
1 1 0 2 2 1 1 1 2 5 9 7 7 7 4 2 3 8 11 10 9 8 5 7 10 11 9 5 3 7 14 18 19 18 17 16 17 20 20 20 22 25 27 29 29 31 32 33 34 33 32 32 32 32 31 30 29 30 30 30 30 31 31 33 34 35 35 36 36 35 35 35 35 34 34 34 34 35 34 33 33 32 32 32 31 30 30 30 30 29 28 28 29 29 28 28 28
2 1 1 2 2 2 3 2 4 6 6 5 6 7 6 5 6 9 13 10 8 10 8 8 4 9 8 4 3 8 17 19 17 16 16 18 19 20 21 22 24 26 28 30 30 32 33 33 34 33 32 31 31 31 31 30 31 31 31 31 32 33 35 36 36 37 37 37 37 37 37 36 35 35 34 34 34 34 34 34 33 32 32 32 31 30 30 30 30 29 29 29 29 29 29 29 29
2 2 2 1 4 3 3 2 5 3 2 5 6 7 7 8 10 9 12 11 9 8 7 10 2 5 5 4 4 7 14 16 13 12 14 17 18 20 21 23 26 26 29 31 31 32 33 33 33 33 32 32 31 30 29 29 30 31 32 33 35 36 37 38 38 38 38 37 37 37 37 36 35 34 34 34 33 33 34 34 33 32 31 31 31 30 30 30 29 29 29 29 28 28 28 28 29
3 1 2 2 3 3 2 2 3 0 2 7 7 7 8 8 10 10 10 11 11 6 3 8 5 1 5 5 4 4 8 11 8 8 11 13 15 18 21 24 27 28 31 32 32 32 32 33 33 32 32 32 32 31 30 30 31 33 34 35 36 37 38 38 38 38 38 37 36 36 36 36 36 35 34 34 33 33 33 33 33 32 31 31 30 30 30 29 29 29 28 28 27 27 28 28 28
3 0 1 1 1 1 2 2 1 2 2 8 8 11 11 10 10 10 9 8 8 6 3 9 10 2 2 3 4 4 6 9 7 4 7 9 12 16 19 23 26 28 32 32 32 33 32 33 33 34 34 34 35 34 33 32 33 34 35 36 36 36 37 37 38 38 37 36 36 35 34 35 35 35 34 33 33 33 33 33 32 31 31 30 30 30 29 29 28 28 28 27 27 27 27 27 28
3 0 2 1 1 2 3 3 3 2 3 8 10 12 11 11 11 9 9 7 8 8 6 8 10 5 5 4 6 7 6 9 8 5 6 7 8 12 16 22 25 27 30 31 31 31 32 33 33 34 35 35 36 36 35 34 34 35 34 34 35 35 35 36 36 36 36 35 35 34 33 33 34 34 33 33 33 33 33 32 32 31 30 30 30 30 30 29 28 28 27 27 27 26 26 26 27
1 1 3 1 1 2 4 5 4 2 5 8 9 9 10 9 9 10 12 14 11 10 11 9 10 10 9 7 9 10 9 11 11 9 10 10 10 10 15 21 23 26 28 28 27 28 30 32 33 33 34 35 34 35 35 34 34 34 34 33 33 33 34 34 35 35 35 34 33 32 32 32 32 32 32 32 32 32 32 32 32 31 30 30 30 30 30 29 28 27 27 26 27 27 26 26 27
1 1 2 2 3 4 6 6 6 3 3 6 6 8 11 10 7 9 10 14 13 12 12 11 13 13 12 10 9 11 12 13 14 13 13 12 13 12 14 18 19 23 24 24 24 26 28 30 31 31 32 33 33 34 35 34 33 33 33 32 32 32 32 32 33 34 33 33 32 32 31 31 31 31 31 31 31 31 32 32 32 31 31 30 29 30 29 29 28 27 27 26 27 28 27 27 28
1 2 3 3 4 6 8 7 7 4 5 8 6 7 8 10 9 7 6 9 9 11 9 9 11 10 10 10 10 10 12 14 15 15 15 13 13 13 13 16 17 19 20 21 22 23 26 28 29 29 30 31 32 33 33 33 32 32 31 31 32 31 31 31 31 32 32 32 31 30 30 30 30 30 30 30 29 30 31 31 31 30 30 30 29 29 29 29 28 27 27 26 27 28 29 28 28
2 2 3 3 5 6 7 6 5 5 7 10 8 8 9 8 6 6 9 10 8 8 6 5 8 7 7 9 9 11 12 13 14 16 15 12 11 10 11 14 16 17 18 19 20 21 23 26 27 27 27 28 30 30 30 31 31 31 31 30 31 31 31 30 30 31 31 31 30 29 28 29 29 29 29 29 29 29 29 30 30 30 30 29 29 28 29 29 28 28 28 27 27 28 29 28 27
2 3 3 4 4 4 6 6 6 3 5 9 7 7 9 7 5 7 10 7 5 5 4 4 9 9 8 8 9 10 12 14 15 15 14 11 8 8 9 11 12 13 17 19 20 20 21 24 25 24 24 26 28 28 29 29 30 30 30 30 30 31 31 30 30 30 30 30 29 28 27 28 28 28 29 29 29 29 29 30 30 30 29 29 29 29 29 29 29 29 28 28 27 27 28 27 26
2 3 5 5 4 4 5 5 6 5 5 8 6 7 6 5 7 6 4 2 3 5 5 7 9 10 10 9 10 10 11 13 14 13 11 10 8 10 10 9 10 11 15 18 18 18 19 22 23 21 21 23 25 27 27 28 29 29 29 29 29 30 30 30 30 29 29 29 29 28 27 28 27 28 28 28 28 28 29 29 30 30 29 29 29 30 29 29 29 29 28 27 26 25 27 27 26
2 3 5 4 4 4 5 5 5 5 5 6 5 6 6 6 7 8 8 7 6 8 8 9 10 11 11 11 11 11 11 12 12 10 9 8 8 11 11 9 10 11 13 15 16 18 18 20 21 19 19 21 23 25 26 26 27 27 27 27 28 29 29 29 29 29 29 29 29 28 27 28 27 27 27 27 27 27 28 28 29 30 29 29 29 29 29 29 29 29 28 27 25 24 26 27 26
2 3 5 5 6 6 8 7 6 6 6 6 5 5 5 4 5 6 9 8 8 10 10 11 11 11 12 11 11 11 12 12 11 9 9 8 8 10 10 10 12 12 14 15 16 17 17 18 17 17 19 20 22 23 24 25 25 26 26 27 27 28 28 29 29 28 28 28 29 28 28 27 27 27 27 26 26 26 27 26 27 29 29 29 28 29 28 27 28 28 28 26 25 23 24 27 27
3 3 5 7 9 8 9 8 7 7 5 4 6 6 6 5 7 7 7 8 8 10 11 11 10 10 10 10 10 10 11 12 11 9 8 7 7 9 10 10 12 14 15 16 16 16 16 16 16 16 18 19 20 21 23 23 23 24 25 25 26 27 28 28 28 28 28 28 28 28 27 27 27 27 26 26 25 26 26 25 26 27 28 28 28 28 28 26 26 27 27 26 24 22 22 26 27
3 2 4 5 8 8 7 8 8 7 4 4 7 8 7 8 7 5 7 8 9 10 10 10 9 9 8 9 9 9 10 10 10 9 8 7 7 7 8 9 11 12 13 14 16 15 14 15 15 16 16 18 20 21 21 20 21 22 23 23 24 25 25 26 27 28 28 27 27 27 27 26 26 25 25 24 25 25 24 24 25 25 25 26 27 27 26 25 24 25 25 25 23 22 21 24 27
3 0 4 4 7 7 6 7 8 7 6 6 6 7 6 5 2 1 7 9 9 10 9 9 8 8 7 8 9 7 7 8 8 8 8 7 6 6 6 7 8 9 10 13 14 14 13 14 15 15 16 17 19 21 20 19 20 21 22 22 22 22 23 25 27 27 28 27 26 26 26 26 25 25 24 23 23 24 24 23 23 23 24 24 24 24 24 24 22 22 23 23 22 20 20 22 26
4 1 3 5 5 6 7 8 8 7 6 7 7 6 5 3 3 2 11 11 10 10 8 8 7 7 7 8 9 8 6 6 6 7 8 6 5 5 6 6 7 8 10 11 11 12 12 12 14 15 16 17 19 20 20 19 20 20 21 22 22 21 22 24 25 26 27 26 25 25 25 25 25 24 23 22 21 22 23 23 22 22 22 22 22 23 23 23 22 21 21 22 21 19 19 21 25
2 2 3 5 6 5 7 8 9 8 6 9 8 3 4 6 3 7 13 12 10 10 8 8 7 7 7 7 7 7 7 6 6 7 7 6 5 6 6 6 6 7 9 9 10 11 11 11 12 15 16 17 18 18 18 19 19 19 21 21 21 21 22 23 23 24 25 25 25 24 24 24 24 23 22 21 20 20 21 22 21 21 20 20 21 22 23 23 22 22 21 22 22 20 20 20 25
2 4 4 3 5 6 8 8 10 10 7 12 8 1 2 5 6 11 13 12 12 10 8 8 7 6 6 6 5 6 7 7 7 7 7 7 6 7 7 7 7 7 8 9 10 11 11 10 11 14 15 16 17 17 18 18 18 19 20 20 20 20 21 22 21 22 22 23 24 24 24 23 23 22 21 20 20 19 20 20 21 20 19 19 20 21 22 23 23 23 22 23 23 22 20 20 24
4 4 3 3 4 5 8 11 11 9 7 12 8 4 2 4 8 12 12 13 13 10 10 9 7 7 6 6 6 6 6 7 8 8 7 7 7 7 8 8 8 8 8 9 9 10 10 10 12 13 14 16 17 17 18 18 19 19 19 19 19 19 20 21 21 21 21 22 23 23 23 23 22 21 20 19 20 19 19 20 20 19 18 19 20 19 21 23 23 22 22 22 23 22 20 19 24
4 3 3 4 4 4 7 12 13 10 7 11 9 3 3 5 10 13 12 13 13 10 11 10 9 9 8 7 7 6 7 8 9 9 8 8 8 8 9 9 9 8 8 9 9 10 11 11 12 13 14 16 17 17 17 18 19 19 19 19 18 18 19 20 20 20 21 21 22 23 23 23 22 21 19 18 19 19 20 20 19 19 17 17 19 18 20 22 22 22 21 21 22 22 19 19 23
4 4 3 3 4 3 5 9 12 10 7 9 10 5 2 5 10 12 13 14 13 10 11 12 11 11 9 8 7 7 8 9 10 10 10 9 9 9 9 9 10 10 9 8 8 9 10 11 12 12 13 14 14 15 16 16 17 18 19 19 18 18 18 19 19 19 21 22 22 22 22 22 21 20 19 18 17 18 19 19 18 17 16 15 17 18 19 21 21 21 21 20 20 20 18 19 23
3 4 3 5 6 3 3 7 10 11 8 8 10 8 4 5 11 13 14 15 14 11 11 12 11 10 10 9 8 8 8 9 10 13 13 11 10 10 10 10 11 11 10 9 9 8 9 11 12 11 11 12 12 13 13 13 14 15 16 17 18 18 18 18 18 20 20 21 21 21 20 20 20 20 19 17 16 15 16 18 18 17 15 14 16 18 18 20 21 20 20 19 19 20 18 19 23
4 3 2 4 4 6 4 4 7 12 9 7 9 9 7 7 12 12 14 15 14 11 10 11 11 11 10 9 9 10 10 9 11 14 14 13 12 12 11 11 13 13 11 9 9 9 9 10 11 10 10 10 10 10 10 10 11 12 12 14 15 16 17 17 18 19 19 19 19 19 19 19 19 19 18 18 16 15 15 16 17 16 15 14 14 18 19 20 21 21 20 19 19 19 15 18 23
8 6 4 4 4 6 5 3 7 10 8 8 9 9 10 7 11 13 14 14 13 11 10 9 10 10 10 9 9 9 10 10 14 16 15 14 13 13 13 12 13 13 12 10 9 9 9 9 10 11 10 8 8 9 9 8 9 10 10 11 12 13 14 15 16 18 18 18 17 17 18 18 18 18 17 17 17 15 14 14 15 16 15 14 15 18 19 19 20 21 21 19 19 18 15 18 22
8 5 4 6 5 6 7 1 6 6 4 7 9 10 11 8 11 13 13 13 12 12 12 11 11 10 10 10 9 10 9 10 16 17 15 15 14 14 14 13 13 13 12 11 10 10 10 10 10 11 11 10 9 9 9 10 9 9 9 10 11 10 10 12 13 15 17 17 16 16 16 17 17 17 17 17 17 15 15 14 15 16 16 15 15 16 18 18 19 20 20 19 18 18 17 18 22
7 5 5 6 4 7 8 1 5 3 1 4 8 9 11 10 9 13 13 13 14 15 14 13 13 12 10 10 11 10 8 11 16 16 15 16 15 15 15 14 14 13 13 11 11 11 11 11 11 10 11 11 11 10 10 11 11 9 9 10 10 10 10 10 11 11 13 15 16 16 16 16 17 17 16 16 17 16 15 15 15 16 16 15 14 14 16 17 18 19 19 19 18 17 17 18 21
5 4 4 5 5 7 5 3 5 3 1 3 7 8 10 11 8 12 16 15 13 14 14 13 13 13 11 11 11 11 10 11 13 14 16 16 16 16 16 15 14 14 13 12 11 11 11 11 11 11 11 12 12 12 11 11 12 12 11 9 9 10 10 11 11 11 11 12 15 16 16 16 16 16 16 15 16 16 15 15 14 15 15 15 14 14 16 17 17 19 19 18 18 18 16 17 19
4 4 4 4 4 5 3 2 3 3 3 4 7 8 8 9 9 9 15 13 8 10 12 11 11 11 11 11 11 11 12 12 11 13 16 17 17 17 16 16 16 15 13 12 12 12 12 11 11 12 12 13 13 12 12 12 12 12 12 11 10 10 10 9 10 10 10 10 11 14 15 14 14 15 15 14 15 16 15 15 14 14 14 14 14 13 15 16 16 17 18 17 17 17 17 17 17
5 5 5 6 6 6 5 1 3 4 5 6 6 7 7 8 13 11 9 8 6 8 11 10 9 9 10 10 11 11 12 12 12 12 15 18 19 18 17 17 17 16 14 13 13 13 13 13 12 12 13 13 14 13 11 10 8 6 7 10 11 10 9 7 7 7 8 8 8 10 12 13 13 14 14 14 15 15 15 15 14 14 13 13 12 12 14 14 14 16 16 16 16 16 16 16 15
4 5 4 5 6 6 6 2 1 3 4 4 2 3 5 7 11 10 7 8 8 8 9 10 9 9 10 10 10 10 10 12 13 14 16 19 20 19 18 18 17 16 15 14 14 14 14 13 12 13 13 13 13 13 10 9 8 6 5 7 9 8 8 7 7 6 5 6 6 6 8 11 12 13 14 14 14 15 15 15 14 13 12 12 12 11 13 13 13 14 14 14 15 14 13 14 15
3 3 4 4 3 4 5 5 3 3 4 2 4 3 6 4 6 6 9 9 10 8 9 10 9 9 10 9 9 10 10 11 12 15 18 19 20 20 20 19 19 17 16 16 15 14 14 14 13 12 12 12 13 13 11 9 10 10 10 9 9 9 8 7 6 5 5 5 5 5 5 8 10 12 14 15 14 14 14 14 14 12 12 12 11 10 12 12 12 11 11 12 13 12 12 13 14
2 2 3 4 4 4 5 6 4 4 5 3 5 5 7 7 6 5 11 10 9 9 10 10 10 10 10 9 9 11 11 11 11 12 17 20 20 21 21 20 19 19 18 17 16 15 14 14 13 12 12 12 13 13 13 11 11 10 10 10 9 9 8 7 5 5 4 4 5 5 5 6 8 11 13 14 14 13 14 14 13 12 11 12 11 11 12 12 11 10 10 11 11 11 11 12 12
0 1 2 2 2 4 5 5 4 5 5 4 6 5 5 7 3 3 8 8 8 10 12 12 12 11 11 10 10 10 10 11 12 13 16 20 21 21 22 21 20 20 19 18 17 16 15 14 13 13 13 13 13 13 13 13 11 11 11 10 9 8 7 6 5 5 4 4 5 5 5 5 6 9 11 13 14 13 12 12 13 12 12 12 12 11 12 12 11 10 9 10 11 11 9 9 10
1 2 2 2 2 4 5 5 4 5 6 8 6 6 5 7 2 4 3 3 8 9 10 12 12 12 11 10 11 11 10 10 12 16 19 20 21 22 22 21 21 21 19 18 17 17 16 15 14 13 13 13 13 13 13 13 12 11 12 11 10 8 7 6 5 4 4 4 4 4 4 4 5 6 8 10 12 12 11 11 13 13 12 12 12 12 12 12 11 10 8 8 9 10 8 8 9
2 2 3 3 5 5 4 4 3 3 6 9 9 10 9 6 2 6 3 4 7 7 6 9 11 12 12 10 10 11 10 9 10 15 19 21 21 22 22 22 22 21 20 19 18 17 16 15 15 14 13 13 13 12 12 12 12 12 12 11 10 8 7 6 5 4 3 4 4 4 4 4 4 6 7 8 10 11 10 10 12 12 12 12 12 12 12 12 12 11 9 7 7 9 8 8 10
1 1 3 4 4 3 3 3 3 4 6 7 7 11 12 8 3 5 6 3 3 3 6 11 13 13 12 10 10 10 10 10 10 12 17 20 22 22 22 22 22 21 21 20 19 18 17 16 15 15 13 13 12 12 11 12 12 12 11 9 9 8 7 5 5 4 3 3 3 2 3 3 3 4 6 7 8 10 10 10 11 12 12 12 12 13 13 13 13 12 11 9 8 8 8 8 12
2 2 2 2 3 2 3 3 4 5 6 3 2 2 7 8 6 3 3 3 5 4 1 10 13 12 12 10 10 9 8 10 10 10 14 18 20 21 22 23 22 22 22 21 20 19 18 17 16 16 14 13 12 12 11 12 11 10 9 8 7 6 6 5 4 4 3 2 1 2 2 2 2 3 4 5 7 10 9 9 11 12 12 12 13 14 14 14 13 13 12 10 8 8 8 10 13
4 3 3 3 2 3 4 4 4 5 3 2 4 4 2 3 4 3 3 4 5 7 5 7 11 11 11 10 10 9 9 9 9 9 13 16 19 21 22 23 23 23 22 22 21 20 19 18 17 16 15 13 12 12 11 11 10 9 8 8 7 5 5 5 3 3 3 2 1 1 2 1 1 2 4 5 7 9 9 9 11 11 12 13 13 14 14 14 14 14 13 11 9 8 10 13 13
5 4 3 3 2 3 4 3 3 3 4 3 2 3 2 3 1 2 4 4 5 6 6 7 8 8 9 9 9 9 9 9 8 9 13 17 20 22 22 22 23 23 24 23 22 21 20 19 18 17 16 15 13 12 11 10 9 9 8 7 7 7 6 5 3 3 3 2 1 1 1 1 2 3 4 5 7 9 9 9 10 11 12 13 13 14 15 15 15 14 14 12 10 9 12 13 13
3 2 2 3 2 2 3 4 4 4 6 6 2 2 5 2 2 3 3 4 5 4 5 8 8 8 9 8 8 9 9 9 9 9 12 17 21 22 23 23 23 24 24 23 22 22 21 20 19 18 17 16 14 13 12 11 9 8 7 7 6 6 7 6 4 4 2 2 1 1 1 3 4 5 5 7 8 8 9 10 11 11 12 13 14 14 16 16 16 16 15 13 12 11 12 13 14
0 1 1 2 2 1 2 5 5 3 7 7 3 5 6 2 1 2 4 4 4 2 3 7 8 9 9 8 8 9 9 9 9 9 12 18 21 22 23 23 24 24 25 24 23 23 22 21 21 19 18 16 15 13 12 11 10 8 7 6 5 5 5 6 5 4 2 1 2 1 3 5 6 6 7 8 9 9 10 11 11 12 12 13 14 14 15 16 16 16 16 15 14 13 12 14 15
0 1 1 1 2 1 1 3 4 3 7 7 4 7 7 4 3 0 2 3 3 4 4 6 7 9 8 8 8 9 9 9 9 11 14 19 21 22 23 23 24 25 25 25 24 23 22 22 21 20 19 17 16 14 12 11 10 8 6 5 5 4 4 5 4 3 2 2 3 3 5 6 7 7 8 9 10 10 11 11 12 13 13 13 14 14 15 15 16 17 16 15 15 13 14 17 17
1 1 0 1 1 1 1 2 3 4 5 6 8 9 8 6 4 0 3 7 6 6 6 7 9 10 9 8 9 10 10 9 9 10 13 17 21 22 23 24 25 26 25 25 25 23 22 22 21 20 19 18 16 15 13 11 11 9 7 5 5 5 5 4 4 4 3 4 5 5 6 7 8 8 9 10 11 11 12 12 13 14 15 15 15 15 15 16 16 17 17 16 15 13 16 20 20
1 1 1 1 1 2 2 1 1 3 4 6 9 10 6 4 2 1 5 8 8 8 8 9 10 11 9 9 9 10 10 10 9 9 11 16 20 22 24 24 25 26 25 25 25 23 23 22 21 20 19 18 17 15 13 12 11 9 8 6 5 6 5 5 5 5 5 6 7 7 7 8 8 9 10 11 12 12 13 14 14 15 16 16 16 16 16 16 17 18 18 17 16 16 19 21 21
3 2 3 3 2 0 1 2 2 2 4 5 6 9 7 3 1 3 7 8 9 11 10 9 10 10 10 9 10 10 9 10 10 9 11 17 21 22 24 25 25 26 25 25 24 23 23 23 22 21 20 19 17 15 13 12 10 9 7 6 6 6 6 6 5 6 6 6 6 7 8 9 10 10 11 12 13 13 14 15 16 17 17 17 18 17 17 16 18 19 19 19 19 19 21 22 23
5 4 5 6 5 3 2 5 4 3 5 6 5 9 10 3 2 2 5 5 6 10 10 9 9 10 10 9 10 11 10 10 10 10 14 19 21 23 24 25 26 25 25 25 24 24 23 23 22 22 21 19 17 16 15 13 11 9 7 6 6 6 6 6 6 6 6 6 7 8 9 10 11 11 12 13 14 14 15 16 17 18 18 19 19 18 18 18 18 20 20 21 21 21 23 24 24
Wind_Direction
318 324 319 308 296 277 263 248 223 206 235 258 245 230 243 79 65 9 47 53 57 49 53 45 39 48 79 102 105 87 43 49 20 355 125 350 358 8 356 1 14 32 37 40 49 63 85 94 110 108 101 100 101 100 98 98 97 96 96 95 94 94 92 88 87 86 86 84 81 80 76 73 72 71 71 68 68 67 65 65 62 60 59 59 52 49 50 50 49 47 43 40 38 37 34 33 31
323 318 304 283 260 266 242 199 247 189 200 242 251 248 20 67 45 35 49 54 71 75 74 58 58 73 102 113 103 85 43 42 16 23 74 2 11 358 358 9 20 37 41 42 52 60 73 86 97 99 96 91 91 90 92 95 96 97 97 97 94 92 90 86 85 83 83 83 81 79 77 75 72 72 72 67 66 64 63 63 58 56 57 57 54 48 47 47 46 44 41 38 36 33 31 30 27
325 322 307 288 210 248 277 178 270 229 204 228 226 108 58 72 61 52 48 47 61 89 87 52 48 40 77 76 39 63 51 40 22 11 33 16 14 342 354 13 23 42 47 46 55 58 64 77 87 92 94 92 92 91 92 91 93 96 96 95 91 88 87 84 82 81 81 82 81 78 78 77 74 72 71 68 65 62 62 63 58 56 56 55 53 49 47 46 44 41 37 36 34 31 29 28 25
325 321 303 294 191 206 250 177 254 262 245 243 229 71 67 76 77 71 58 44 35 47 69 59 49 15 46 56 16 63 49 31 35 22 16 16 4 341 354 14 29 52 54 52 55 57 63 72 80 85 90 91 92 93 92 89 90 93 92 91 87 85 84 82 81 81 80 82 82 78 76 76 74 70 71 70 66 65 63 63 61 58 56 54 53 51 50 48 46 43 40 39 36 34 33 30 28
315 307 285 287 270 174 260 192 227 255 267 322 48 65 69 80 86 88 74 55 38 34 45 68 89 52 61 53 358 45 2 332 40 29 13 1 356 351 5 20 34 55 58 57 57 58 62 70 76 79 85 87 89 91 91 89 89 89 87 85 82 82 81 81 81 79 78 79 78 74 71 71 70 69 70 69 65 65 64 63 62 62 60 58 58 56 56 54 52 50 48 46 43 40 38 34 32
299 283 248 276 272 104 282 208 210 222 312 351 66 80 69 78 86 87 78 58 44 45 49 50 92 96 78 64 50 52 12 353 28 20 10 355 355 6 23 36 42 53 61 62 62 61 60 67 72 75 79 78 81 84 86 86 83 82 80 79 79 80 80 80 79 76 76 75 72 71 69 67 67 67 67 65 64 64 65 66 67 67 65 64 62 61 59 57 55 53 51 48 47 44 41 38 35
301 294 217 255 211 106 272 236 225 200 12 3 42 85 73 71 74 65 62 50 36 43 54 64 107 100 76 97 80 49 35 34 31 17 13 2 6 26 36 48 50 54 64 65 68 67 61 64 69 73 75 73 75 75 78 79 78 76 76 77 77 78 80 81 79 78 78 75 73 73 71 70 69 68 68 67 67 68 69 71 71 70 68 66 64 62 60 58 57 54 52 49 48 45 43 40 37
290 320 221 241 185 173 258 258 326 115 54 34 44 71 76 70 74 63 57 61 47 39 40 52 99 92 57 67 90 49 40 37 35 24 22 26 30 37 42 49 53 56 64 65 71 73 67 67 71 74 73 72 72 73 75 76 78 76 75 76 76 79 82 83 82 82 81 79 78 76 74 76 76 73 73 71 72 74 74 73 72 71 68 67 64 63 61 58 57 55 54 51 49 46 44 41 38
259 275 212 279 196 164 251 231 85 103 75 56 57 73 83 80 85 82 77 81 83 60 41 33 55 94 82 70 86 58 38 30 31 31 32 39 35 39 47 49 54 60 66 66 71 78 77 74 76 79 76 73 71 72 75 74 77 78 77 79 81 84 85 85 85 85 85 84 84 82 81 82 82 80 79 78 78 77 76 74 72 71 68 66 64 62 61 58 57 56 54 51 49 46 44 42 39
246 276 298 291 209 154 239 177 114 91 75 59 60 57 69 103 107 99 92 85 88 84 55 45 65 90 96 69 72 57 37 28 29 32 31 35 35 40 51 53 58 64 69 69 69 77 84 85 85 86 85 84 81 77 77 76 77 82 84 86 88 89 90 90 90 90 89 89 89 88 86 86 86 86 85 83 81 78 75 74 71 69 68 65 63 61 60 58 57 55 54 51 49 46 44 43 40
245 195 236 289 242 155 321 111 112 82 78 73 60 33 24 46 106 100 91 83 71 75 35 20 75 97 90 70 72 60 40 32 31 32 31 39 37 38 50 56 61 67 73 76 71 73 80 86 90 91 92 93 91 88 86 84 84 88 91 92 93 93 94 94 93 93 92 91 91 89 88 86 86 85 85 83 81 78 75 72 70 68 66 64 61 59 58 57 55 53 51 50 48 45 43 42 39
279 211 240 289 312 21 2 358 73 73 87 94 62 24 13 40 73 86 86 86 70 73 34 353 115 121 89 83 97 58 38 32 31 29 34 45 42 38 48 58 64 67 74 80 78 79 78 81 88 89 94 96 97 95 92 92 92 94 95 96 97 96 96 95 94 94 93 92 91 90 87 85 84 83 81 80 79 77 75 72 69 67 65 63 61 57 56 55 53 50 49 48 46 43 41 41 38
323 356 303 342 337 349 347 350 73 72 98 94 77 43 30 63 87 95 89 78 60 77 29 338 233 129 86 113 113 62 34 30 30 27 34 41 43 44 47 57 66 65 71 80 79 82 83 81 84 86 89 94 98 98 96 96 95 96 97 99 99 98 97 96 95 93 92 90 89 88 86 84 81 80 79 77 76 75 74 71 68 66 64 62 60 57 54 53 52 50 48 47 46 43 40 40 38
337 359 320 357 327 314 332 358 86 267 117 98 95 72 50 59 80 93 92 77 53 66 64 358 336 51 100 136 125 72 30 29 35 30 32 31 41 50 51 58 66 67 72 77 75 79 83 83 85 86 87 89 93 96 97 98 97 97 97 99 99 99 98 96 95 93 91 88 86 86 85 83 80 78 77 75 74 72 71 70 68 65 63 61 59 57 54 52 51 49 47 46 45 44 40 39 37
324 205 288 323 314 306 25 358 26 309 135 116 106 89 66 43 54 65 62 93 73 36 87 30 5 342 111 150 127 81 30 38 56 46 33 26 37 47 53 62 65 69 73 74 75 78 79 81 84 87 87 88 90 91 94 98 99 99 97 97 98 98 98 96 95 92 90 87 85 83 83 83 80 78 75 73 72 70 69 68 66 64 62 60 58 57 54 51 50 48 46 44 43 43 40 38 36
310 291 271 247 359 343 38 343 328 336 126 122 116 102 80 48 48 56 41 93 101 37 45 26 14 33 37 57 97 79 50 67 82 83 63 40 36 39 51 63 63 68 75 72 71 77 81 83 85 87 90 91 92 92 92 95 98 99 98 97 96 96 97 96 95 92 90 88 85 81 80 79 78 76 72 70 68 68 66 65 64 62 61 58 57 55 53 49 47 46 44 43 41 40 38 36 35
305 282 267 269 47 24 19 355 6 41 125 126 134 115 100 79 64 82 65 71 92 67 66 57 46 57 58 72 92 87 79 87 94 87 68 48 41 40 49 57 57 61 70 72 68 73 81 85 87 89 92 94 95 96 95 92 94 97 96 95 95 94 94 95 94 91 88 85 82 79 75 73 72 71 68 65 63 63 63 62 60 58 57 55 54 52 51 48 44 44 42 41 39 37 35 34 33
298 269 289 355 29 35 33 16 9 360 117 117 130 110 113 122 115 121 86 71 87 82 78 80 71 68 74 75 76 92 101 98 91 73 52 42 43 37 39 48 51 54 59 66 67 72 79 85 88 89 92 95 96 97 97 94 92 93 92 92 93 92 90 91 91 89 84 80 78 76 72 69 68 67 65 62 59 58 58 58 56 54 53 51 50 50 48 46 43 42 40 39 38 35 33 32 30
324 328 335 27 32 33 39 19 6 24 85 82 78 86 110 127 137 143 111 100 101 87 89 94 85 83 82 68 51 69 95 103 98 79 52 32 32 29 32 45 51 54 55 58 61 69 81 87 88 88 90 95 99 97 97 97 94 91 90 91 92 92 89 88 88 87 84 79 74 72 70 67 66 64 62 60 57 55 54 54 53 52 50 48 47 47 46 44 42 42 40 38 36 33 31 31 28
357 352 342 61 58 41 36 13 25 78 103 92 74 66 78 96 121 130 114 109 95 83 96 114 109 106 95 78 59 55 66 78 86 87 74 44 25 21 29 44 50 55 61 61 60 65 79 89 89 87 90 96 99 97 97 99 97 92 89 90 90 90 89 87 86 85 83 80 73 69 68 66 63 61 60 57 55 54 51 50 50 49 48 47 44 43 44 41 40 40 39 37 36 31 29 30 27
10 17 11 57 76 65 48 23 23 42 104 104 103 87 76 62 61 113 134 121 89 78 60 106 133 128 115 98 82 70 62 58 59 68 79 72 47 33 37 46 50 57 69 71 69 68 74 86 88 87 91 95 96 96 97 97 99 96 89 88 88 86 86 85 83 82 81 80 75 70 67 65 61 59 58 55 53 51 50 48 47 46 46 45 42 41 41 39 37 36 36 35 35 29 25 28 26
350 54 41 35 61 85 75 49 18 11 88 108 115 101 89 68 45 55 109 107 106 109 78 91 116 121 121 115 101 88 74 64 59 54 61 73 71 65 60 59 63 65 70 67 67 70 72 84 89 87 88 92 93 95 95 93 96 97 90 87 87 84 83 80 78 79 78 77 75 71 67 64 60 57 55 54 52 50 49 47 46 45 43 42 41 39 38 37 35 34 34 33 33 27 21 25 26
330 85 73 32 53 110 112 89 42 24 73 93 96 96 96 98 66 38 52 70 96 104 100 94 95 106 114 114 106 94 84 75 70 61 53 55 65 76 71 66 74 75 71 63 66 72 73 81 88 87 86 89 91 93 92 90 91 90 85 83 83 81 81 79 76 76 76 75 73 69 66 63 60 56 54 52 51 49 47 45 44 44 42 41 39 37 35 35 32 32 32 31 32 26 19 22 23
352 55 74 53 60 93 106 97 77 59 67 86 108 114 108 122 109 69 75 94 105 102 104 100 97 104 106 104 101 97 95 91 87 77 66 56 58 78 82 78 82 84 80 72 71 74 76 82 84 85 87 89 89 89 89 87 86 84 81 79 78 78 78 78 76 75 75 74 72 68 65 63 61 58 53 51 50 49 47 44 42 41 40 39 38 36 32 31 29 29 29 28 29 25 16 17 20
29 53 77 75 78 89 101 103 99 87 83 103 105 91 72 100 111 96 107 121 124 121 114 110 106 101 99 99 100 103 104 103 102 95 85 77 67 78 86 88 88 85 81 78 75 72 77 84 84 86 88 88 88 89 86 83 83 83 81 78 75 75 74 75 75 75 74 72 71 69 66 63 61 59 54 51 50 49 46 44 42 39 36 35 37 35 30 28 26 24 25 25 26 24 14 12 16
23 73 97 99 104 110 113 117 120 109 125 127 100 96 91 107 109 95 129 138 134 135 129 126 120 108 104 100 99 103 107 109 112 111 104 97 84 80 80 87 88 80 79 84 80 72 76 85 85 86 89 90 92 90 84 80 80 80 80 79 76 74 72 71 72 73 72 71 70 69 68 65 61 59 56 51 49 49 47 43 41 38 34 31 32 32 28 27 26 22 21 21 22 21 13 8 10
325 335 97 99 113 130 145 138 137 132 153 157 118 123 131 134 179 157 148 150 143 143 140 139 133 124 121 111 107 103 103 107 112 116 115 109 97 87 82 86 84 77 84 90 84 77 77 82 83 85 88 92 94 91 86 81 80 80 80 79 76 74 72 71 71 70 70 70 69 69 69 67 63 60 57 52 47 46 47 44 41 38 33 29 29 29 26 25 27 22 18 19 20 19 12 6 6
294 286 106 123 141 160 169 160 157 155 167 167 133 126 149 175 250 161 147 154 151 147 144 144 140 131 130 125 123 121 116 113 111 116 115 112 109 101 93 90 90 85 90 93 91 87 80 78 83 87 92 94 92 89 86 82 80 81 80 78 76 74 73 72 70 68 68 67 68 69 68 67 64 60 56 53 48 44 44 44 42 38 32 27 26 27 24 23 26 23 19 20 20 19 13 5 3
291 262 208 170 188 205 192 181 179 187 180 158 145 137 199 193 170 126 139 151 151 150 150 152 148 139 140 136 133 133 131 128 123 121 118 116 115 115 106 99 104 97 96 99 100 98 87 82 86 89 94 95 92 88 86 84 82 81 80 78 75 73 73 71 69 67 66 65 66 66 67 66 64 60 55 52 50 44 42 43 42 37 32 26 23 24 22 22 23 21 18 17 19 18 14 5 359
261 247 253 207 214 231 210 192 189 200 173 156 169 272 197 158 132 132 145 156 156 160 166 163 157 151 151 145 142 139 138 140 135 129 128 128 119 117 116 109 110 106 104 105 105 100 89 87 91 91 93 92 92 90 89 88 86 83 80 78 76 73 72 71 69 69 66 65 65 64 65 65 64 62 56 52 50 47 43 41 40 36 31 26 23 21 20 20 21 20 17 14 16 16 14 6 357
243 244 264 238 249 256 201 182 186 191 163 162 182 276 226 154 150 152 156 162 163 169 172 170 167 162 160 155 153 144 144 145 138 135 133 133 129 123 121 114 111 110 110 107 105 100 91 91 93 94 96 95 93 90 90 90 89 87 83 79 77 75 75 73 71 70 67 66 65 63 63 63 63 62 58 52 47 46 44 40 40 37 31 26 24 21 17 19 21 20 18 12 10 12 12 5 357
217 227 241 224 250 263 184 178 189 182 166 173 177 256 244 163 161 161 161 171 175 178 175 177 176 171 170 165 163 156 150 148 143 145 144 140 137 128 125 121 115 111 111 111 109 106 100 97 95 95 96 95 91 87 87 88 87 86 84 82 80 77 76 74 71 69 68 66 65 62 61 60 60 60 60 55 46 43 43 40 40 39 33 25 23 23 18 17 19 18 19 15 8 7 8 1 355
216 214 234 247 249 250 159 180 201 184 161 180 186 231 278 135 158 167 170 180 187 188 178 179 180 175 176 171 169 164 155 158 158 157 156 150 142 134 129 129 129 122 115 116 116 113 110 106 102 97 95 92 90 88 86 83 82 81 81 82 82 79 75 72 71 69 67 64 63 61 59 58 57 57 59 59 51 41 39 40 41 40 36 27 21 23 20 18 18 16 16 17 9 5 5 358 352
239 214 213 246 248 250 175 176 202 193 169 188 204 231 263 133 156 173 177 184 193 197 183 179 181 177 177 175 171 169 166 168 166 163 161 152 143 139 132 134 142 136 124 123 123 122 122 118 109 101 101 99 93 90 86 82 80 77 76 77 76 76 75 72 70 68 65 62 60 59 58 57 56 56 57 60 58 46 39 38 40 41 37 30 20 20 22 17 19 18 14 15 11 6 5 356 351
282 287 263 257 259 262 249 147 181 198 190 203 211 228 236 163 161 181 184 187 196 198 188 182 182 178 178 179 175 172 174 172 166 162 157 150 145 144 140 140 148 145 136 130 125 124 127 122 112 104 103 101 96 92 89 87 84 80 76 73 70 69 70 70 68 65 63 61 59 56 57 57 55 56 55 58 60 53 44 37 36 40 36 33 22 17 22 17 16 19 15 13 9 10 10 355 352
292 312 323 310 302 285 286 91 153 193 201 220 222 235 242 190 169 185 185 188 198 199 191 184 183 184 182 181 178 172 173 166 159 156 154 153 152 149 148 146 148 149 143 134 127 126 125 122 120 117 110 106 111 110 106 101 95 90 85 77 71 67 65 64 63 62 61 60 58 55 54 55 55 56 54 55 59 56 50 39 35 38 36 36 26 16 19 18 14 16 16 13 6 8 7 356 355
294 314 313 294 292 288 287 120 151 187 202 223 230 242 252 227 183 184 183 185 197 202 196 191 188 188 186 182 178 172 164 148 147 153 155 155 154 151 150 148 146 146 144 138 131 128 124 123 126 125 119 114 117 121 123 116 103 97 94 90 85 79 72 66 61 59 57 57 57 56 53 53 54 55 53 52 55 56 53 45 36 35 34 34 30 18 16 17 15 15 15 14 10 4 359 358 357
306 302 288 286 282 278 281 214 144 166 184 236 249 253 259 255 203 173 173 185 198 202 198 196 192 187 186 180 175 167 147 137 145 154 157 155 155 155 153 152 149 145 144 141 134 130 127 126 125 125 126 119 112 115 123 120 110 103 100 101 99 95 89 79 72 62 51 48 50 54 53 50 51 52 52 50 51 52 52 49 38 33 32 31 33 20 15 18 16 17 16 12 12 6 358 358 0
294 283 275 272 264 271 280 125 139 156 181 258 270 270 267 265 231 173 178 193 200 199 198 196 189 187 186 178 173 163 145 146 156 159 160 160 159 158 157 157 153 146 141 139 135 132 131 130 126 126 127 121 115 115 119 120 119 118 115 113 104 95 88 76 69 62 49 38 37 45 50 48 48 50 53 52 51 50 51 51 42 35 32 30 32 20 13 18 14 17 18 11 9 5 360 3 6
259 257 259 263 265 268 266 136 160 186 215 264 281 278 270 267 256 203 187 194 193 192 200 199 188 185 184 177 173 164 155 158 163 163 163 164 162 162 161 159 155 149 142 139 138 136 135 132 129 128 128 123 117 114 116 116 114 112 108 106 100 92 89 76 64 56 51 41 27 31 42 46 47 49 53 55 54 52 50 52 46 38 34 30 30 19 12 15 13 15 17 14 11 2 357 1 7
251 238 240 254 254 259 269 161 160 208 232 246 267 279 265 242 246 233 181 176 192 188 196 200 188 179 175 174 172 164 161 162 164 166 167 166 167 167 163 159 156 153 149 147 146 144 139 134 133 133 131 127 121 114 115 114 112 100 87 97 103 96 92 87 75 60 52 52 35 23 29 40 47 48 51 56 56 52 48 49 47 40 34 29 28 21 13 13 15 16 13 13 13 5 356 353 1
259 247 262 267 253 267 293 313 188 260 265 220 190 282 265 218 231 231 158 171 206 189 192 200 188 177 174 174 170 162 161 164 165 166 167 168 168 165 162 160 158 155 153 151 149 146 141 136 136 135 132 130 125 117 116 119 126 132 125 126 127 112 101 92 84 78 66 61 56 37 21 28 41 46 48 51 54 52 47 45 45 42 35 30 28 20 12 14 17 15 11 11 8 7 3 352 355
259 272 349 345 304 305 303 299 282 273 283 217 153 232 272 256 248 220 159 186 211 190 194 200 189 187 181 175 169 163 165 165 164 164 165 169 168 164 162 162 160 156 154 152 148 146 143 137 134 136 134 131 127 120 116 116 121 124 125 125 124 117 111 103 93 91 87 76 71 66 35 21 28 38 43 45 47 47 45 41 39 41 37 28 27 22 11 13 19 14 11 10 4 8 12 358 352
248 277 2 4 330 311 290 289 277 264 289 257 182 218 270 273 268 200 160 185 216 202 203 202 194 193 183 173 169 167 168 164 162 164 166 170 170 165 163 163 162 159 156 153 149 145 144 140 138 139 136 132 130 126 121 118 115 114 115 113 112 114 113 111 105 96 92 83 75 72 57 32 20 25 33 38 41 39 39 38 33 37 36 24 23 23 11 10 18 16 15 10 3 14 17 359 354
250 47 4 358 315 296 291 286 269 271 289 262 211 202 257 269 285 116 149 185 227 218 207 203 196 190 182 175 168 167 167 163 163 164 167 169 168 165 164 163 161 160 157 154 150 147 144 142 141 139 135 131 130 129 125 121 120 123 124 120 115 115 113 115 113 103 96 81 72 68 60 44 25 21 20 25 33 32 31 32 29 33 32 20 18 18 12 12 15 14 16 7 356 8 16 355 353
60 15 307 283 255 260 265 258 262 275 264 256 236 184 230 269 213 123 132 214 238 228 206 200 193 185 183 174 166 166 163 162 164 163 166 167 166 166 165 160 158 158 157 154 151 149 147 144 141 137 134 130 127 128 126 123 125 130 130 126 122 119 118 120 117 104 97 85 72 65 59 44 26 20 10 12 21 24 25 23 22 27 26 17 15 13 11 12 11 12 17 3 345 353 3 351 347
45 331 299 272 246 231 232 236 239 272 259 250 235 207 226 273 182 161 191 217 215 209 185 183 183 180 182 174 166 167 163 161 161 161 163 163 164 166 163 158 156 156 155 154 152 151 149 147 143 138 136 133 128 126 127 128 129 126 123 121 118 116 116 118 117 101 83 82 73 59 60 46 21 10 359 359 6 11 19 17 14 20 18 12 10 9 10 8 6 9 9 1 345 346 352 340 333
65 272 291 292 261 217 215 223 195 238 260 249 229 217 223 242 234 182 189 174 164 184 177 173 176 179 177 170 166 165 162 160 158 159 161 161 162 163 160 157 156 156 156 155 154 154 152 150 146 140 136 135 132 130 130 128 125 119 115 113 112 113 117 115 115 108 86 80 72 56 61 48 24 4 348 346 347 355 10 11 7 11 9 6 5 4 6 3 0 2 2 357 345 347 349 325 319
176 216 246 277 281 242 224 220 202 226 253 278 349 289 234 236 265 249 169 103 56 15 165 165 168 171 168 165 163 159 157 159 160 160 162 163 163 162 160 159 158 159 159 158 158 156 154 154 151 144 140 139 137 135 132 126 120 117 115 112 109 112 116 115 117 119 107 95 82 70 64 42 27 357 333 328 329 342 1 3 359 2 360 359 358 358 359 357 353 356 355 349 344 347 334 309 312
188 201 200 218 251 276 254 243 247 242 255 330 35 21 289 252 301 335 75 71 40 16 28 130 151 157 158 157 152 150 155 160 163 163 164 166 165 164 164 163 162 163 163 162 161 160 157 156 154 149 146 145 141 137 134 130 126 126 128 128 127 125 123 122 129 136 131 134 145 101 75 30 355 305 303 306 316 335 354 355 350 353 353 352 351 350 352 350 348 350 347 342 343 335 309 302 312
200 199 213 247 265 273 265 273 284 292 311 301 84 76 255 225 275 45 83 74 52 30 43 91 115 130 137 139 142 150 160 164 166 165 167 167 166 166 166 166 166 166 166 165 163 161 160 158 159 155 151 149 146 142 139 136 134 133 135 139 141 143 139 131 144 174 163 170 186 132 115 265 267 272 286 299 313 333 345 345 344 345 346 345 344 343 342 342 343 342 339 337 333 315 301 304 312
223 179 203 257 282 277 281 299 288 294 300 279 184 196 259 226 116 107 105 87 71 57 76 98 108 118 126 137 150 160 165 167 168 166 167 167 167 169 169 168 169 168 167 166 164 164 162 161 162 159 155 153 150 148 146 144 146 144 140 142 145 149 147 144 171 210 196 185 215 160 207 255 275 290 295 302 316 333 336 335 337 339 338 336 335 334 333 335 336 333 332 331 324 314 305 305 307
349 130 194 257 297 9 297 294 289 269 273 271 225 247 272 303 110 145 118 91 78 89 120 119 124 130 139 156 164 168 171 170 170 168 168 168 168 171 171 170 170 169 168 167 166 167 166 164 163 160 157 156 154 153 151 149 151 148 145 149 150 157 160 159 186 221 214 223 253 236 242 262 282 294 297 306 320 328 327 329 331 330 329 325 325 325 325 326 326 325 327 323 319 316 308 303 304
119 216 263 311 324 41 118 279 291 261 260 268 261 264 275 281 274 183 128 140 144 172 164 138 142 151 163 173 171 172 172 169 170 168 169 170 171 172 172 171 172 171 170 169 168 169 167 165 164 161 160 158 156 156 155 154 153 150 154 164 163 173 179 173 193 229 230 237 251 242 252 272 285 292 300 310 316 318 321 324 322 319 319 317 316 317 317 318 317 317 319 316 316 314 302 299 300
198 274 335 68 330 312 187 224 271 263 263 273 274 275 273 258 257 211 201 205 183 174 176 167 171 177 180 177 173 173 170 169 171 169 170 171 172 173 171 171 172 170 170 169 168 167 165 165 164 162 161 160 158 159 160 159 158 158 166 179 181 188 199 197 205 229 231 229 243 251 264 281 291 296 302 306 308 313 317 316 314 312 312 311 311 312 312 313 313 312 312 312 312 305 293 296 300
85 342 284 166 181 250 234 220 290 270 267 280 283 286 280 250 244 152 190 198 179 170 184 194 192 190 186 178 175 175 172 173 173 170 171 171 172 173 171 170 169 168 169 167 166 165 164 164 164 162 161 161 161 163 164 163 166 171 175 184 196 205 217 223 224 235 239 238 249 265 279 289 294 296 300 303 306 310 309 308 306 305 306 307 307 309 309 309 309 309 309 308 307 301 296 300 303
158 187 229 213 194 140 309 270 239 232 261 272 279 283 274 236 196 144 162 179 181 176 186 201 198 191 186 179 176 175 172 173 172 168 169 170 170 171 169 167 166 166 166 165 164 164 163 163 164 163 163 163 164 165 164 167 175 183 183 190 209 223 230 234 240 249 257 263 272 284 293 294 296 298 300 302 303 303 302 301 302 303 304 305 305 307 307 307 307 308 307 305 304 303 302 303 304
190 193 199 204 202 189 244 252 220 186 240 250 250 272 273 236 174 181 161 167 176 176 184 196 192 184 183 180 173 170 171 171 171 170 168 168 168 167 165 164 164 163 163 164 164 164 163 164 164 164 165 165 166 167 169 175 184 191 196 204 219 234 239 240 249 260 272 283 288 295 298 297 298 300 299 299 299 299 299 299 301 303 304 303 303 305 306 305 304 305 304 304 303 302 302 302 301